MTN8105 TJSJ-TDPD

Flight info

Callsign MTN8105
Flight time N/A
Altitude 13000
Route SJU RTE2 COY R888 MODUX DCT PPR
Aircraft C408/M-SDFGRY/S

Departure

Time 2026-05-01 15:06
Airport Luis Munoz Marin International Airport (TJSJ)

Arrival

Time N/A
Airport Douglas-Charles Airport (TDPD)
Time Latitude Longitude Altitude Speed Heading
2026-05-01 14:51 18.43633 -65.99786 -37 ft 0 kts
2026-05-01 14:59 18.43643 -65.99794 -27 ft 6 kts 289°
2026-05-01 14:59 18.43599 -65.99827 -39 ft 8 kts 202°
2026-05-01 15:00 18.43544 -65.99912 -41 ft 8 kts 208°
2026-05-01 15:00 18.43472 -65.99928 -45 ft 12 kts 226°
2026-05-01 15:00 18.43466 -66.00014 -32 ft 15 kts 270°
2026-05-01 15:01 18.43466 -66.00145 -35 ft 16 kts 270°
2026-05-01 15:01 18.43467 -66.00241 -36 ft 14 kts 271°
2026-05-01 15:01 18.43467 -66.00357 -34 ft 16 kts 270°
2026-05-01 15:01 18.43467 -66.00482 -32 ft 19 kts 270°
2026-05-01 15:02 18.43468 -66.00573 -31 ft 13 kts 270°
2026-05-01 15:02 18.43469 -66.00647 -31 ft 17 kts 271°
2026-05-01 15:02 18.43468 -66.00796 -31 ft 17 kts 270°
2026-05-01 15:02 18.43467 -66.00927 -32 ft 16 kts 270°
2026-05-01 15:03 18.43468 -66.01067 -33 ft 22 kts 270°
2026-05-01 15:03 18.43467 -66.01206 -35 ft 15 kts 271°
2026-05-01 15:03 18.43467 -66.01311 -34 ft 9 kts 268°
2026-05-01 15:03 18.43494 -66.01360 -34 ft 11 kts 354°
2026-05-01 15:04 18.43588 -66.01359 -36 ft 16 kts
2026-05-01 15:04 18.43707 -66.01359 -35 ft 20 kts 360°
2026-05-01 15:04 18.43775 -66.01395 -48 ft 12 kts 306°
2026-05-01 15:04 18.43841 -66.01462 -43 ft 14 kts 347°
2026-05-01 15:05 18.43910 -66.01405 -48 ft 16 kts 69°
2026-05-01 15:05 18.43985 -66.01215 -50 ft 57 kts 67°
2026-05-01 15:05 18.44216 -66.00639 42 ft 106 kts 68°
2026-05-01 15:05 18.44510 -65.99900 579 ft 106 kts 65°
2026-05-01 15:06 18.44790 -65.99185 1143 ft 108 kts 70°
2026-05-01 15:06 18.44928 -65.98383 1624 ft 116 kts 82°
2026-05-01 15:06 18.45031 -65.97570 2261 ft 108 kts 82°
2026-05-01 15:06 18.45151 -65.96782 2765 ft 109 kts 83°
2026-05-01 15:07 18.45155 -65.95961 3182 ft 118 kts 111°
2026-05-01 15:07 18.44940 -65.95152 3718 ft 115 kts 86°
2026-05-01 15:07 18.44976 -65.94333 4320 ft 106 kts 90°
2026-05-01 15:07 18.45013 -65.93562 4811 ft 107 kts 87°
2026-05-01 15:08 18.45056 -65.92776 5297 ft 107 kts 87°
2026-05-01 15:08 18.45105 -65.91984 5759 ft 110 kts 86°
2026-05-01 15:08 18.45153 -65.91202 6255 ft 107 kts 84°
2026-05-01 15:08 18.45206 -65.90405 6703 ft 110 kts 84°
2026-05-01 15:09 18.45260 -65.89608 7163 ft 110 kts 84°
2026-05-01 15:09 18.45313 -65.88786 7563 ft 115 kts 84°
2026-05-01 15:09 18.45368 -65.87948 8004 ft 116 kts 84°
2026-05-01 15:09 18.45425 -65.87088 8433 ft 119 kts 84°
2026-05-01 15:10 18.45483 -65.86212 8871 ft 121 kts 84°
2026-05-01 15:10 18.45602 -65.84405 9747 ft 127 kts 84°
2026-05-01 15:10 18.45663 -65.83477 10173 ft 128 kts 84°
2026-05-01 15:11 18.45725 -65.82531 10581 ft 130 kts 85°
2026-05-01 15:11 18.45852 -65.80594 11375 ft 134 kts 85°
2026-05-01 15:11 18.45917 -65.79605 11779 ft 136 kts 86°
2026-05-01 15:12 18.45958 -65.78604 12174 ft 138 kts 100°
2026-05-01 15:12 18.44909 -65.76988 12989 ft 138 kts 130°
2026-05-01 15:12 18.44267 -65.76077 13019 ft 171 kts 129°
2026-05-01 15:13 18.41857 -65.72453 12999 ft 219 kts 127°
2026-05-01 15:14 18.40087 -65.69781 12986 ft 223 kts 127°
2026-05-01 15:14 18.39199 -65.68443 12986 ft 224 kts 127°
2026-05-01 15:14 18.37419 -65.65760 12983 ft 223 kts 127°
2026-05-01 15:15 18.35637 -65.63076 12981 ft 223 kts 127°
2026-05-01 15:15 18.33863 -65.60403 12981 ft 223 kts 128°
2026-05-01 15:16 18.32085 -65.57727 12983 ft 223 kts 128°
2026-05-01 15:16 18.30306 -65.55050 12984 ft 223 kts 128°
2026-05-01 15:17 18.28524 -65.52370 12982 ft 223 kts 128°
2026-05-01 15:18 18.25852 -65.48354 12979 ft 224 kts 128°
2026-05-01 15:18 18.24961 -65.47014 12979 ft 224 kts 128°
2026-05-01 15:19 18.22294 -65.43009 12979 ft 224 kts 128°
2026-05-01 15:19 18.20511 -65.40332 12980 ft 224 kts 128°
2026-05-01 15:19 18.19619 -65.38994 12980 ft 223 kts 128°
2026-05-01 15:20 18.17835 -65.36317 12982 ft 223 kts 128°
2026-05-01 15:20 18.16944 -65.34980 12979 ft 223 kts 128°
2026-05-01 15:20 18.16053 -65.33645 12979 ft 223 kts 128°
2026-05-01 15:21 18.15160 -65.32306 12979 ft 223 kts 128°
2026-05-01 15:21 18.14268 -65.30969 12979 ft 223 kts 128°
2026-05-01 15:21 18.13377 -65.29634 12974 ft 223 kts 128°
2026-05-01 15:21 18.12481 -65.28291 12973 ft 224 kts 128°
2026-05-01 15:22 18.10691 -65.25611 12976 ft 224 kts 128°
2026-05-01 15:22 18.10098 -65.24722 12977 ft 224 kts 128°
2026-05-01 15:22 18.09203 -65.23383 12979 ft 224 kts 128°
2026-05-01 15:23 18.08308 -65.22043 12979 ft 224 kts 128°
2026-05-01 15:23 18.07122 -65.20267 12979 ft 224 kts 128°
2026-05-01 15:23 18.06519 -65.19364 12979 ft 224 kts 128°
2026-05-01 15:23 18.05333 -65.17590 12979 ft 224 kts 128°
2026-05-01 15:24 18.04726 -65.16684 12977 ft 224 kts 128°
2026-05-01 15:24 18.03830 -65.15344 12977 ft 224 kts 128°
2026-05-01 15:24 18.02935 -65.14005 12977 ft 224 kts 128°
2026-05-01 15:24 18.02039 -65.12666 12978 ft 224 kts 128°
2026-05-01 15:25 18.01141 -65.11325 12977 ft 225 kts 128°
2026-05-01 15:25 18.00245 -65.09986 12977 ft 224 kts 128°
2026-05-01 15:25 17.99350 -65.08648 12977 ft 224 kts 128°
2026-05-01 15:25 17.98463 -65.07323 12976 ft 224 kts 128°
2026-05-01 15:26 17.97567 -65.05986 12976 ft 224 kts 128°
2026-05-01 15:26 17.96669 -65.04646 12980 ft 224 kts 128°
2026-05-01 15:26 17.95769 -65.03302 12980 ft 225 kts 128°
2026-05-01 15:26 17.94870 -65.01960 12981 ft 225 kts 128°
2026-05-01 15:27 17.93971 -65.00619 12980 ft 224 kts 128°
2026-05-01 15:27 17.93074 -64.99281 12981 ft 224 kts 128°
2026-05-01 15:27 17.92177 -64.97943 12986 ft 224 kts 128°
2026-05-01 15:28 17.90387 -64.95275 12985 ft 223 kts 128°
2026-05-01 15:28 17.89493 -64.93943 12987 ft 223 kts 128°
2026-05-01 15:28 17.88596 -64.92606 12992 ft 225 kts 127°
2026-05-01 15:29 17.86784 -64.89906 12997 ft 226 kts 128°
2026-05-01 15:29 17.85877 -64.88556 12997 ft 226 kts 128°
2026-05-01 15:29 17.84076 -64.85875 12996 ft 224 kts 128°
2026-05-01 15:30 17.82282 -64.83205 12994 ft 223 kts 128°
2026-05-01 15:31 17.78680 -64.77848 12999 ft 225 kts 127°
2026-05-01 15:31 17.76881 -64.75173 12996 ft 224 kts 127°
2026-05-01 15:32 17.75088 -64.72508 12999 ft 223 kts 127°
2026-05-01 15:32 17.73328 -64.69822 12993 ft 224 kts 120°
2026-05-01 15:33 17.71339 -64.65383 12970 ft 225 kts 117°
2026-05-01 15:34 17.69354 -64.60978 12971 ft 222 kts 117°